Change the Weather History Date:

Monday, March 11, 2013

  Actual Average (KDAY) Record (KDAY)
Temperature  
Mean Temperature 47 °F 38 °F  
Max Temperature 57 °F 48 °F 76 °F (1990)
Min Temperature 37 °F 30 °F 5 °F (1948)
Degree Days  
Heating Degree Days 18 27  
Month to date heating degree days 312  
Since 1 July heating degree days 4587  
Cooling Degree Days 0 0  
Month to date cooling degree days 0  
Year to date cooling degree days 0  
Moisture  
Dew Point 47 °F    
Average Humidity 91    
Maximum Humidity 100    
Minimum Humidity 69    
Precipitation  
Precipitation 0.00 in 0.10 in 1.00 in (1917)
Month to date precipitation 1.03  
Year to date precipitation 5.98  
Snow  
Snow 0.00 in 0.20 in 5.50 in (1906)
Month to date snowfall 1.7  
Since 1 July snowfall 21.0  
Snow Depth -    
Sea Level Pressure  
Sea Level Pressure 29.77 in    
Wind  
Wind Speed 10 mph (SSW)    
Max Wind Speed 30 mph    
Max Gust Speed 40 mph    
Visibility 9 miles    
Events Rain    
T = Trace of Precipitation, MM = Missing Value Source: NWS Daily Summary

Daily Weather History Graph

Daily Weather History Graph

Search for Another Location

Airport or City:

Trip Planner

Search our weather history database for the weather conditions in past years. The results will help you decide how hot, cold, wet, or windy it might be!

Date:

Astronomy

Mar. 11, 2013 Rise Set
Actual Time 7:54 AM EDT 7:40 PM EDT
Civil Twilight 7:28 AM EDT 8:07 PM EDT
Nautical Twilight 6:56 AM EDT 8:38 PM EDT
Astronomical Twilight 6:25 AM EDT 9:10 PM EDT
Moon 7:28 AM EDT (3/11) 7:51 PM EDT (3/11)
Length of Visible Light 12h 39m
Length of Day
11h 45m
Waning Crescent, 0% of the Moon is Illuminated
Mar 11
Waning Crescent
Mar 11
New
Mar 19
First Quarter
Mar 27
Full
Apr 3
Last Quarter

Hourly Weather History & Observations

Time (EDT) Temp. Windchill Dew Point Humidity Pressure Visibility Wind Dir Wind Speed Gust Speed Precip Events Conditions
12:15 AM 56.1 °F - 46.4 °F 70% 29.87 in 10.0 mi South 9.2 mph - N/A Rain Light Rain
12:35 AM 57.4 °F - 47.1 °F 69% 29.87 in 10.0 mi South 8.1 mph - N/A Rain Light Rain
1:15 AM 55.4 °F - 48.7 °F 78% 29.87 in 10.0 mi SSW 10.4 mph - N/A Rain Light Rain
1:35 AM 52.7 °F - 48.2 °F 85% 29.87 in 10.0 mi SSW 5.8 mph - N/A Rain Light Rain
1:55 AM 52.7 °F - 48.4 °F 85% 29.85 in 10.0 mi South 5.8 mph - N/A Rain Rain
2:15 AM 52.7 °F - 48.4 °F 85% 29.86 in 10.0 mi SSW 9.2 mph - N/A Rain Rain
2:35 AM 52.7 °F - 50.2 °F 91% 29.85 in 7.0 mi SSW 3.5 mph - N/A Rain Rain
2:55 AM 52.7 °F - 50.9 °F 94% 29.85 in 7.0 mi South 11.5 mph - N/A Rain Rain
3:15 AM 52.7 °F - 50.9 °F 94% 29.84 in 10.0 mi South 8.1 mph - N/A Rain Light Rain
3:35 AM 52.7 °F - 50.9 °F 94% 29.84 in 7.0 mi South 12.7 mph 19.6 mph N/A Rain Rain
3:55 AM 52.7 °F - 51.3 °F 95% 29.83 in 10.0 mi South 10.4 mph 16.1 mph N/A Rain Rain
4:15 AM 52.7 °F - 51.3 °F 95% 29.82 in 10.0 mi South 11.5 mph - N/A Rain Rain
4:35 AM 52.7 °F - 51.4 °F 95% 29.81 in 10.0 mi South 6.9 mph - N/A Rain Light Rain
4:55 AM 52.7 °F - 51.8 °F 97% 29.81 in 10.0 mi South 5.8 mph - N/A Rain Light Rain
5:15 AM 52.7 °F - 52.0 °F 97% 29.82 in 7.0 mi SSE 8.1 mph - N/A Rain Rain
5:35 AM 52.7 °F - 51.8 °F 97% 29.82 in 10.0 mi South 5.8 mph - N/A Rain Rain
5:55 AM 50.2 °F - 50.0 °F 99% 29.83 in 7.0 mi SW 6.9 mph - N/A Rain Rain
6:15 AM 50.2 °F - 50.2 °F 100% 29.83 in 5.0 mi SSW 4.6 mph - N/A Rain Rain
6:35 AM 50.2 °F - 50.2 °F 100% 29.83 in 7.0 mi SSW 4.6 mph - N/A Rain Rain
6:55 AM 50.2 °F - 50.2 °F 100% 29.82 in 7.0 mi SSW 3.5 mph - N/A Rain Rain
7:15 AM 50.2 °F - 50.2 °F 100% 29.81 in 5.0 mi Calm Calm - N/A Rain Rain
7:35 AM 50.2 °F - 50.2 °F 100% 29.81 in 10.0 mi SSE 3.5 mph - N/A Rain Rain
7:55 AM 50.2 °F - 50.2 °F 100% 29.81 in 7.0 mi South 5.8 mph - N/A Rain Rain
8:15 AM 50.2 °F - 50.2 °F 100% 29.80 in 7.0 mi SSE 8.1 mph - N/A Rain Light Rain
8:35 AM 50.5 °F - 50.2 °F 99% 29.80 in 10.0 mi South 10.4 mph 18.4 mph N/A Rain Light Rain
8:55 AM 50.2 °F - 50.0 °F 99% 29.80 in 7.0 mi SSE 13.8 mph 18.4 mph N/A Rain Light Rain
9:15 AM 50.2 °F - 49.6 °F 98% 29.79 in 10.0 mi SE 9.2 mph 16.1 mph N/A Rain Light Rain
9:35 AM 50.2 °F - 49.6 °F 98% 29.79 in 10.0 mi SSE 13.8 mph - N/A Rain Light Rain
9:55 AM 50.2 °F - 49.6 °F 98% 29.75 in 10.0 mi SSE 11.5 mph 17.3 mph N/A Rain Light Rain
10:15 AM 50.2 °F - 49.3 °F 97% 29.74 in 10.0 mi SSE 9.2 mph - N/A   Overcast
10:35 AM 52.7 °F - 51.1 °F 94% 29.74 in 10.0 mi SSE 8.1 mph - N/A   Overcast
10:55 AM 52.7 °F - 50.9 °F 94% 29.73 in 10.0 mi SSE 10.4 mph 16.1 mph N/A   Mostly Cloudy
11:15 AM 52.7 °F - 51.4 °F 95% 29.70 in 10.0 mi SSE 8.1 mph - N/A   Light Drizzle
11:35 AM 52.7 °F - 52.0 °F 97% 29.71 in 10.0 mi South 6.9 mph - N/A   Overcast
11:55 AM 52.7 °F - 52.7 °F 100% 29.70 in 10.0 mi SSE 8.1 mph - N/A Rain Light Rain
12:15 PM 52.7 °F - 52.7 °F 100% 29.68 in 7.0 mi SSE 8.1 mph - N/A Rain Light Rain
12:35 PM 52.7 °F - 52.7 °F 100% 29.67 in 10.0 mi South 12.7 mph 21.9 mph N/A Rain Light Rain
12:55 PM 52.7 °F - 52.3 °F 99% 29.66 in 10.0 mi South 15.0 mph 18.4 mph N/A Rain Light Rain
1:15 PM 52.7 °F - 52.3 °F 99% 29.65 in 10.0 mi SSE 16.1 mph 23.0 mph N/A Rain Light Rain
1:35 PM 52.7 °F - 52.3 °F 99% 29.63 in 10.0 mi South 19.6 mph 28.8 mph N/A Rain Light Rain
1:55 PM 52.7 °F - 52.3 °F 99% 29.62 in 7.0 mi South 15.0 mph 20.7 mph N/A Rain Light Rain
2:15 PM 52.7 °F - 52.7 °F 100% 29.63 in 3.0 mi SW 19.6 mph 25.3 mph N/A Rain Heavy Rain
2:35 PM 51.6 °F - 50.4 °F 95% 29.66 in 10.0 mi West 29.9 mph 40.3 mph N/A Rain Light Rain
2:55 PM 47.8 °F - 47.3 °F 98% 29.65 in 7.0 mi West 16.1 mph 25.3 mph N/A Rain Light Rain
3:15 PM 48.6 °F - 48.0 °F 98% 29.66 in 10.0 mi WSW 16.1 mph 23.0 mph N/A   Overcast
3:35 PM 47.7 °F - 45.9 °F 93% 29.66 in 10.0 mi WSW 18.4 mph 29.9 mph N/A   Overcast
3:55 PM 47.7 °F - 45.7 °F 93% 29.66 in 10.0 mi WSW 18.4 mph 27.6 mph N/A   Overcast
4:15 PM 47.7 °F - 45.5 °F 92% 29.66 in 10.0 mi SW 17.3 mph 24.2 mph N/A   Overcast
4:55 PM 50.2 °F - 46.6 °F 87% 29.65 in 10.0 mi SW 16.1 mph 20.7 mph N/A   Overcast
5:15 PM 49.5 °F - 46.0 °F 88% 29.66 in 10.0 mi SW 12.7 mph 17.3 mph N/A   Overcast
5:35 PM 50.2 °F - 46.8 °F 88% 29.68 in 10.0 mi SW 11.5 mph 18.4 mph N/A   Mostly Cloudy
5:55 PM 48.0 °F - 42.6 °F 82% 29.70 in 10.0 mi West 19.6 mph 26.5 mph N/A   Mostly Cloudy
6:15 PM 47.7 °F - 41.9 °F 80% 29.71 in 10.0 mi West 17.3 mph 21.9 mph N/A   Overcast
6:35 PM 47.7 °F - 41.5 °F 79% 29.72 in 10.0 mi West 17.3 mph 27.6 mph N/A   Overcast
7:15 PM 45.1 °F 37.9 °F 40.1 °F 82% 29.75 in 10.0 mi West 17.3 mph 21.9 mph N/A   Overcast
7:35 PM 45.1 °F 38.4 °F 40.1 °F 82% 29.76 in 10.0 mi WSW 15.0 mph 20.7 mph N/A   Overcast
7:55 PM 45.1 °F 40.8 °F 40.6 °F 84% 29.77 in 10.0 mi SW 8.1 mph - N/A   Overcast
8:15 PM 45.1 °F 39.5 °F 40.5 °F 84% 29.78 in 10.0 mi SW 11.5 mph - N/A   Overcast
8:35 PM 42.8 °F 35.4 °F 36.5 °F 78% 29.80 in 10.0 mi West 15.0 mph 21.9 mph N/A   Overcast
8:55 PM 41.5 °F 34.2 °F 35.8 °F 80% 29.81 in 10.0 mi West 13.8 mph 17.3 mph N/A   Overcast
9:15 PM 41.4 °F 34.3 °F 36.0 °F 81% 29.82 in 10.0 mi WSW 12.7 mph - N/A   Overcast
9:35 PM 40.6 °F 33.8 °F 36.5 °F 85% 29.83 in 10.0 mi West 11.5 mph - N/A   Overcast
9:55 PM 40.1 °F 32.7 °F 36.1 °F 86% 29.84 in 10.0 mi West 12.7 mph 18.4 mph N/A   Overcast
10:15 PM 40.1 °F 32.0 °F 36.0 °F 85% 29.85 in 10.0 mi West 15.0 mph 20.7 mph N/A   Overcast
10:35 PM 40.1 °F 33.2 °F 35.6 °F 84% 29.85 in 10.0 mi West 11.5 mph 18.4 mph N/A   Overcast
10:55 PM 38.8 °F 31.6 °F 34.9 °F 86% 29.86 in 10.0 mi West 11.5 mph 20.7 mph N/A   Overcast
11:15 PM 38.8 °F 31.6 °F 34.5 °F 84% 29.87 in 10.0 mi West 11.5 mph 18.4 mph N/A   Overcast
11:35 PM 37.8 °F 29.8 °F 33.8 °F 86% 29.87 in 10.0 mi West 12.7 mph - N/A   Overcast
11:55 PM 37.6 °F 30.5 °F 33.4 °F 85% 29.87 in 10.0 mi WSW 10.4 mph 17.3 mph N/A   Overcast